Location: Brunembert
(50.7122°N, 1.8935°E)
Time: 03:45:48
(UTC+00:00)

H-2A R/B - Pass Details

Date: 22 April 2021
Orbit: 575 x 596 km, 98.2° (Epoch: 06 May)

Event Time Altitude Azimuth Distance (km) Brightness Sun altitude
Rises 22:14:04 0° 10° (N) 2,852 7.8 -23.3°
Reaches altitude 10° 22:16:16 10° 6° (N) 1,946 6.9 -23.5°
Maximum altitude 22:20:23 54° 290° (WNW) 728 4.0 -23.8°
Enters shadow 22:21:14 45° 247° (WSW) 817 4.1 -23.8°
